Regional Weather Roundup
Issued by NWS

Home | Current Version | Previous Version | Graphics & Text | Print | Product List | Glossary On
Versions: 1 2 3 4 5 6 7 8 9 10 11 12 13 14 15 16 17 18 19 20 21 22 23 24 25 26 27 28 29 30 31 32 33 34 35 36 37 38 39 40 41 42 43 44 45 46 47 48 49 50
305
ASUS43 KLSX 242110
RWRMO

WEATHER SUMMARY FOR MISSOURI
NATIONAL WEATHER SERVICE SPRINGFIELD MO
400 PM CDT SUN JUL 24 2016

NOTE: "FAIR" INDICATES FEW OR NO CLOUDS BELOW 12,000 FEET WITH NO
       SIGNIFICANT WEATHER AND/OR OBSTRUCTIONS TO VISIBILITY.
       CURRENT SKY AND/OR WEATHER CONDITIONS ARE NOT AVAILABLE FOR
       CHILLICOTHE AND FARMINGTON.

MOZ001>031-035>038-043-044-053-054-242200-
...NORTHERN AND WESTERN MISSOURI...

CITY           SKY/WX    TMP DP  RH WIND       PRES   REMARKS
KANSAS CTY INT CLOUDY    92  74  55 W3        29.95R HX 101
KANSAS C DTWN  CLOUDY    96  75  50 N5        29.91S HX 108
LEE`S SUMMIT   SUNNY     95  74  50 N6        29.94S HX 105
ST JOSEPH      CLOUDY    87  79  76 CALM      29.95R HX 101
CHILLICOTHE      N/A     93  78  61 VRB5      29.93R HX 108
KIRKSVILLE     CLOUDY    90  76  63 N5        29.93S HX 101

$$
MOZ066>068-077>081-088>096-101>105-242200-
...SOUTHWEST MISSOURI...

CITY           SKY/WX    TMP DP  RH WIND       PRES   REMARKS
SPRINGFIELD    SUNNY     97  69  40 SW6       29.95F HX 103
JOPLIN         SUNNY     96  74  48 SW8       29.94F HX 107
BRANSON        PTSUNNY   95  72  46 N5        29.98F HX 103

$$
MOZ032>034-039>042-045>050-055>058-069>072-242200-
...CENTRAL MISSOURI...

CITY           SKY/WX    TMP DP  RH WIND       PRES   REMARKS
COLUMBIA       CLOUDY    94  74  52 SW7       29.93S HX 104
JEFFERSON CITY SUNNY     96  77  54 NW7       29.90S HX 111
ROLLA          MOSUNNY   95  75  52 SW9       29.94F HX 107
SEDALIA        SUNNY     96  77  54 SW9       29.94S HX 111
WHITEMAN AFB   MOSUNNY   95  77  55 W7        29.92S HX 109
OSAGE BEACH    SUNNY     95  78  58 VRB6      29.94F HX 111

$$
MOZ051-052-059>065-242200-
...EAST CENTRAL MISSOURI...

CITY           SKY/WX    TMP DP  RH WIND       PRES   REMARKS
ST LOUIS INTL  MOSUNNY  100  70  37 W7        29.91F HX 107
SPIRIT OF STL  MOSUNNY   98  75  47 W7        29.89F HX 110
ST CHARLES     SUNNY     97  75  49 SW6       29.89F HX 109

$$
MOZ072>076-082>087-097>100-106>115-242200-
...SOUTH CENTRAL AND SOUTHEAST MISSOURI...

CITY           SKY/WX    TMP DP  RH WIND       PRES   REMARKS
CAPE GIRARDEAU SUNNY     92  73  53 VRB6      29.94F HX 100
FARMINGTON     PTSUNNY   91  78  65 S9        29.96F HX 106
POPLAR BLUFF   PTSUNNY   89  77  67 S6        29.93F HX 101
WEST PLAINS    CLOUDY    91  74  57 VRB3      29.99F HX 100

$$




USA.gov is the U.S. government's official web portal to all federal, state and local government web resources and services.